| time (UTC) | temp C | wind direction | speed KPH | gust KPH | rain 1hr cm | rain 24hr cm | rain mn cm | humidity % | barometer mb |
| 20260506094503 | 12 | 88 | 16.1 | 38.6 | 0.00 | 2.95 | 1.17 | 94 | 1008.0 |
| 20260506093603 | 12 | 87 | 17.7 | 30.6 | 0.00 | 2.97 | 1.17 | 94 | 1008.1 |
| 20260506092703 | 12 | 85 | 16.1 | 29.0 | 0.00 | 2.97 | 1.17 | 94 | 1008.1 |
| 20260506091803 | 12 | 80 | 12.9 | 29.0 | 0.00 | 3.00 | 1.17 | 95 | 1008.1 |
| 20260506090903 | 12 | 77 | 11.3 | 27.4 | 0.00 | 3.02 | 1.17 | 95 | 1008.1 |
| 20260506090003 | 12 | 81 | 12.9 | 24.1 | 0.00 | 3.02 | 1.17 | 96 | 1008.0 |
| 20260506085618 | 12 | 83 | 14.5 | 24.1 | 0.00 | 3.02 | 1.17 | 96 | 1008.0 |
| 20260506084717 | 12 | 81 | 16.1 | 29.0 | 0.00 | 3.05 | 1.17 | 96 | 1008.0 |
| 20260506083603 | 12 | 82 | 12.9 | 33.8 | 0.00 | 3.05 | 1.17 | 96 | 1008.1 |
| 20260506082704 | 12 | 86 | 17.7 | 30.6 | 0.00 | 3.05 | 1.17 | 96 | 1008.2 |
| 20260506081803 | 12 | 89 | 17.7 | 33.8 | 0.03 | 3.05 | 1.17 | 96 | 1008.3 |
| 20260506080903 | 12 | 90 | 16.1 | 35.4 | 0.03 | 3.05 | 1.17 | 95 | 1008.2 |
| 20260506080218 | 12 | 87 | 17.7 | 30.6 | 0.03 | 3.05 | 1.17 | 96 | 1008.1 |
| 20260506072703 | 12 | 94 | 12.9 | 22.5 | 0.05 | 3.05 | 1.17 | 100 | 1008.3 |
| 20260506072017 | 12 | 91 | 14.5 | 20.9 | 0.03 | 3.05 | 1.17 | 97 | 1008.3 |
| 20260506070903 | 12 | 84 | 14.5 | 30.6 | 0.03 | 3.05 | 1.17 | 100 | 1008.3 |
| 20260506061803 | 12 | 92 | 9.7 | 20.9 | 0.00 | 3.35 | 1.14 | 100 | 1008.8 |
| 20260506060903 | 12 | 94 | 8.0 | 19.3 | 0.03 | 3.40 | 1.14 | 100 | 1008.7 |
| 20260506051118 | 12 | 92 | 11.3 | 17.7 | 0.03 | 3.58 | 1.14 | 100 | 1008.9 |
| 20260506044503 | 12 | 95 | 11.3 | 19.3 | 0.00 | 3.61 | 1.12 | 100 | 1009.1 |
| 20260506043603 | 12 | 97 | 11.3 | 22.5 | 0.03 | 3.61 | 1.12 | 100 | 1009.1 |
| 20260506042703 | 12 | 100 | 12.9 | 20.9 | 0.03 | 3.61 | 1.12 | 100 | 1009.4 |
| 20260506041803 | 12 | 97 | 14.5 | 25.7 | 0.05 | 3.63 | 1.12 | 100 | 1009.4 |
| 20260506040904 | 12 | 95 | 12.9 | 25.7 | 0.08 | 3.63 | 1.12 | 100 | 1009.4 |
| 20260506040003 | 12 | 99 | 12.9 | 24.1 | 0.48 | 3.63 | 1.12 | 100 | 1009.6 |
| 20260506035403 | 12 | 100 | 12.9 | 24.1 | 0.97 | 3.63 | 1.12 | 100 | 1009.6 |
| 20260506034503 | 12 | 100 | 11.3 | 17.7 | 0.99 | 3.63 | 1.12 | 100 | 1009.4 |
| 20260506033604 | 12 | 96 | 8.0 | 22.5 | 1.02 | 3.63 | 1.09 | 100 | 1009.5 |
| 20260506032703 | 12 | 94 | 6.4 | 22.5 | 1.04 | 3.63 | 1.09 | 100 | 1009.6 |
| 20260506031803 | 12 | 105 | 6.4 | 16.1 | 1.02 | 3.61 | 1.09 | 100 | 1009.7 |
| 20260506030904 | 12 | 89 | 4.8 | 16.1 | 0.99 | 3.56 | 1.04 | 100 | 1009.7 |
| 20260506030003 | 12 | 90 | 1.6 | 16.1 | 0.58 | 3.15 | 0.64 | 100 | 1009.9 |
| 20260506025618 | 12 | 7 | 0.0 | 3.2 | 0.15 | 2.74 | 0.23 | 100 | 1010.1 |
| 20260506024503 | 12 | 5 | 0.0 | 3.2 | 0.08 | 2.67 | 0.15 | 100 | 1010.2 |
| 20260506023603 | 12 | 5 | 0.0 | 1.6 | 0.03 | 2.59 | 0.08 | 100 | 1010.3 |
| 20260506022703 | 12 | 360 | 1.6 | 3.2 | 0.00 | 2.59 | 0.05 | 100 | 1010.4 |
| 20260506021803 | 12 | 217 | 0.0 | 3.2 | 0.00 | 2.59 | 0.05 | 100 | 1010.4 |
| 20260506020903 | 12 | 213 | 0.0 | 1.6 | 0.00 | 2.59 | 0.05 | 100 | 1010.5 |
| 20260506020003 | 12 | 213 | 0.0 | 1.6 | 0.00 | 2.59 | 0.05 | 100 | 1010.7 |
| 20260506015403 | 12 | 0 | 0.0 | 0.0 | 0.00 | 2.59 | 0.05 | 100 | 1010.6 |
| 20260506014503 | 12 | 213 | 0.0 | 1.6 | 0.00 | 2.59 | 0.05 | 100 | 1010.6 |
| 20260506013818 | 12 | 213 | 0.0 | 1.6 | 0.00 | 2.59 | 0.05 | 100 | 1010.6 |
| 20260506012917 | 12 | 213 | 1.6 | 3.2 | 0.00 | 2.59 | 0.05 | 97 | 1010.6 |
| 20260506011803 | 12 | 205 | 1.6 | 4.8 | 0.00 | 2.59 | 0.05 | 97 | 1010.8 |
| 20260506010903 | 12 | 201 | 1.6 | 4.8 | 0.00 | 2.59 | 0.05 | 97 | 1010.9 |
| 20260506010004 | 12 | 160 | 0.0 | 4.8 | 0.00 | 2.59 | 0.05 | 100 | 1011.0 |
| 20260506005617 | 12 | 101 | 0.0 | 1.6 | 0.00 | 2.59 | 0.05 | 100 | 1011.0 |
| 20260506004504 | 12 | 97 | 3.2 | 4.8 | 0.00 | 2.59 | 0.05 | 100 | 1011.2 |
| 20260506003603 | 12 | 95 | 1.6 | 4.8 | 0.00 | 2.59 | 0.05 | 100 | 1011.3 |
| 20260506002704 | 12 | 79 | 1.6 | 3.2 | 0.00 | 2.59 | 0.05 | 100 | 1011.3 |
| 20260506001803 | 12 | 85 | 1.6 | 4.8 | 0.00 | 2.59 | 0.05 | 100 | 1011.4 |
| 20260506001118 | 12 | 135 | 1.6 | 3.2 | 0.00 | 2.59 | 0.05 | 97 | 1011.4 |
| 20260506000004 | 12 | 182 | 1.6 | 3.2 | 0.00 | 2.59 | 0.05 | 97 | 1011.5 |
| 20260505235403 | 12 | 182 | 1.6 | 1.6 | 0.00 | 2.59 | 0.05 | 97 | 1011.6 |
| 20260505234503 | 12 | 182 | 0.0 | 1.6 | 0.00 | 2.59 | 0.05 | 97 | 1011.8 |
| 20260505233603 | 12 | 182 | 0.0 | 1.6 | 0.00 | 2.59 | 0.05 | 97 | 1011.8 |
| 20260505232703 | 12 | 182 | 0.0 | 1.6 | 0.00 | 2.59 | 0.05 | 97 | 1012.0 |
| 20260505231803 | 12 | 0 | 0.0 | 0.0 | 0.03 | 2.59 | 0.05 | 97 | 1011.9 |
| 20260505230904 | 12 | 0 | 0.0 | 0.0 | 0.05 | 2.59 | 0.05 | 97 | 1011.9 |
| 20260505230003 | 12 | 181 | 0.0 | 3.2 | 0.05 | 2.59 | 0.05 | 97 | 1012.1 |
| 20260505225403 | 11 | 180 | 0.0 | 3.2 | 0.05 | 2.59 | 0.05 | 97 | 1012.1 |
| 20260505224504 | 11 | 200 | 1.6 | 3.2 | 0.08 | 2.59 | 0.05 | 97 | 1012.3 |
| 20260505223603 | 12 | 213 | 0.0 | 3.2 | 0.13 | 2.59 | 0.05 | 97 | 1012.3 |
| 20260505222703 | 12 | 213 | 1.6 | 1.6 | 0.20 | 2.59 | 0.05 | 97 | 1012.3 |
| 20260505221804 | 12 | 215 | 0.0 | 3.2 | 0.23 | 2.57 | 0.05 | 97 | 1012.2 |
| 20260505220903 | 11 | 217 | 0.0 | 3.2 | 0.25 | 2.54 | 0.03 | 97 | 1012.3 |
| 20260505220004 | 11 | 217 | 1.6 | 3.2 | 0.23 | 2.51 | 0.00 | 97 | 1012.3 |
| 20260505215618 | 11 | 217 | 1.6 | 3.2 | 0.25 | 2.51 | 2.51 | 97 | 1012.4 |
| 20260505214503 | 11 | 207 | 1.6 | 4.8 | 0.25 | 2.49 | 2.49 | 97 | 1012.4 |
| 20260505213816 | 12 | 201 | 1.6 | 4.8 | 0.23 | 2.46 | 2.46 | 97 | 1012.6 |
| 20260505212703 | 12 | 98 | 1.6 | 6.4 | 0.20 | 2.39 | 2.39 | 97 | 1012.7 |
| 20260505212017 | 12 | 83 | 1.6 | 4.8 | 0.15 | 2.31 | 2.31 | 97 | 1012.8 |
| 20260505210903 | 12 | 100 | 0.0 | 6.4 | 0.10 | 2.29 | 2.29 | 97 | 1012.9 |
| 20260505210218 | 12 | 145 | 0.0 | 3.2 | 0.10 | 2.29 | 2.29 | 97 | 1013.0 |
| 20260505205403 | 12 | 140 | 0.0 | 3.2 | 0.08 | 2.26 | 2.26 | 97 | 1013.0 |
| 20260505204503 | 12 | 130 | 0.0 | 1.6 | 0.05 | 2.24 | 2.24 | 97 | 1013.0 |
| 20260505203603 | 12 | 133 | 1.6 | 1.6 | 0.05 | 2.21 | 2.21 | 97 | 1013.1 |
| 20260505202703 | 12 | 127 | 4.8 | 4.8 | 0.03 | 2.18 | 2.18 | 97 | 1013.1 |
| 20260505202017 | 12 | 115 | 6.4 | 11.3 | 0.05 | 2.18 | 2.18 | 97 | 1013.2 |
| 20260505201116 | 12 | 111 | 3.2 | 12.9 | 0.08 | 2.18 | 2.18 | 97 | 1013.2 |
| 20260505200003 | 12 | 136 | 1.6 | 6.4 | 0.13 | 2.18 | 2.18 | 97 | 1013.1 |
| 20260505195403 | 11 | 144 | 1.6 | 6.4 | 0.23 | 2.18 | 2.18 | 97 | 1013.1 |
| 20260505194503 | 11 | 214 | 1.6 | 3.2 | 0.30 | 2.18 | 2.18 | 97 | 1013.0 |
| 20260505193603 | 11 | 213 | 1.6 | 3.2 | 0.33 | 2.18 | 2.18 | 97 | 1012.9 |
| 20260505192704 | 11 | 213 | 0.0 | 3.2 | 0.30 | 2.16 | 2.16 | 97 | 1013.0 |
| 20260505191803 | 11 | 222 | 1.6 | 3.2 | 0.30 | 2.13 | 2.13 | 97 | 1012.9 |
| 20260505190903 | 11 | 227 | 1.6 | 3.2 | 0.33 | 2.11 | 2.11 | 97 | 1012.8 |
| 20260505190003 | 11 | 211 | 3.2 | 6.4 | 0.36 | 2.06 | 2.06 | 97 | 1012.8 |
| 20260505185618 | 11 | 207 | 3.2 | 6.4 | 0.33 | 1.98 | 1.98 | 97 | 1012.7 |
| 20260505184504 | 11 | 197 | 1.6 | 6.4 | 0.25 | 1.88 | 1.88 | 96 | 1012.5 |
| 20260505182703 | 11 | 47 | 0.0 | 1.6 | 0.23 | 1.85 | 1.85 | 97 | 1012.6 |
| 20260505181803 | 11 | 68 | 0.0 | 3.2 | 0.23 | 1.83 | 1.83 | 97 | 1012.5 |
| 20260505180903 | 11 | 166 | 1.6 | 4.8 | 0.18 | 1.75 | 1.75 | 96 | 1012.6 |
| 20260505180218 | 11 | 179 | 3.2 | 6.4 | 0.25 | 1.73 | 1.75 | 97 | 1012.6 |
| 20260505175403 | 11 | 206 | 3.2 | 6.4 | 0.23 | 1.65 | 1.65 | 97 | 1012.6 |
| 20260505174717 | 11 | 212 | 3.2 | 6.4 | 0.23 | 1.63 | 1.63 | 96 | 1012.5 |
| 20260505173603 | 11 | 203 | 3.2 | 6.4 | 0.28 | 1.63 | 1.63 | 96 | 1012.6 |
| 20260505172703 | 11 | 208 | 3.2 | 8.0 | 0.33 | 1.63 | 1.63 | 96 | 1012.7 |
| 20260505172017 | 11 | 218 | 4.8 | 8.0 | 0.33 | 1.63 | 1.63 | 96 | 1012.5 |
| 20260505170904 | 11 | 211 | 3.2 | 9.7 | 0.33 | 1.57 | 1.57 | 96 | 1012.5 |
| 20260505170003 | 11 | 214 | 1.6 | 6.4 | 0.20 | 1.45 | 1.45 | 96 | 1012.6 |
| 20260505165403 | 11 | 232 | 1.6 | 4.8 | 0.18 | 1.42 | 1.42 | 96 | 1012.5 |
| 20260505164717 | 11 | 321 | 1.6 | 4.8 | 0.15 | 1.37 | 1.37 | 96 | 1012.6 |
| 20260505163603 | 11 | 338 | 4.8 | 8.0 | 0.10 | 1.35 | 1.35 | 96 | 1012.6 |
| 20260505162917 | 11 | 339 | 6.4 | 11.3 | 0.08 | 1.30 | 1.30 | 96 | 1012.7 |
| 20260505161803 | 11 | 349 | 6.4 | 12.9 | 0.05 | 1.27 | 1.27 | 96 | 1012.7 |
| 20260505160903 | 11 | 344 | 4.8 | 12.9 | 0.05 | 1.27 | 1.27 | 96 | 1012.7 |
| 20260505152703 | 11 | 339 | 3.2 | 9.7 | 0.05 | 1.22 | 1.22 | 96 | 1013.0 |
| 20260505151803 | 11 | 273 | 3.2 | 6.4 | 0.05 | 1.22 | 1.22 | 96 | 1013.0 |
| 20260505150903 | 11 | 341 | 6.4 | 8.0 | 0.05 | 1.22 | 1.22 | 96 | 1012.9 |
| 20260505124717 | 12 | 46 | 3.2 | 6.4 | 0.05 | 1.09 | 1.09 | 95 | 1013.6 |
| 20260505123816 | 11 | 63 | 1.6 | 6.4 | 0.05 | 1.09 | 1.09 | 95 | 1013.5 |
| 20260505122703 | 11 | 161 | 1.6 | 4.8 | 0.05 | 1.09 | 1.09 | 95 | 1013.4 |
| 20260505121804 | 11 | 168 | 1.6 | 4.8 | 0.05 | 1.09 | 1.09 | 95 | 1013.5 |
| 20260505120904 | 12 | 187 | 1.6 | 6.4 | 0.13 | 1.09 | 1.09 | 95 | 1013.5 |
| 20260505120004 | 12 | 155 | 3.2 | 4.8 | 0.15 | 1.09 | 1.09 | 95 | 1013.7 |
| 20260505115403 | 12 | 74 | 3.2 | 4.8 | 0.15 | 1.07 | 1.07 | 95 | 1013.6 |
| 20260505114717 | 12 | 20 | 3.2 | 6.4 | 0.15 | 1.07 | 1.07 | 95 | 1013.7 |
| 20260505113818 | 12 | 230 | 3.2 | 8.0 | 0.18 | 1.07 | 1.07 | 95 | 1013.7 |
| 20260505112703 | 11 | 218 | 3.2 | 6.4 | 0.18 | 1.04 | 1.04 | 95 | 1013.7 |
| 20260505111804 | 11 | 209 | 1.6 | 6.4 | 0.15 | 1.02 | 1.02 | 94 | 1013.8 |
| 20260505110903 | 11 | 195 | 3.2 | 4.8 | 0.10 | 0.97 | 0.97 | 94 | 1013.9 |
| 20260505101803 | 12 | 246 | 3.2 | 14.5 | 0.15 | 0.86 | 0.86 | 95 | 1013.7 |
| 20260505100903 | 12 | 252 | 4.8 | 11.3 | 0.18 | 0.86 | 0.86 | 94 | 1013.8 |
| 20260505100003 | 12 | 262 | 3.2 | 11.3 | 0.15 | 0.81 | 0.81 | 94 | 1013.8 |
| 20260505095404 | 12 | 269 | 3.2 | 11.3 | 0.15 | 0.79 | 0.79 | 94 | 1013.9 |